CDT,Max TemperatureF,Mean TemperatureF,Min TemperatureF,Max Dew PointF,MeanDew PointF,Min DewpointF,Max Humidity, Mean Humidity, Min Humidity, Max Sea Level PressureIn, Mean Sea Level PressureIn, Min Sea Level PressureIn, Max VisibilityMiles, Mean VisibilityMiles, Min VisibilityMiles, Max Wind SpeedMPH, Mean Wind SpeedMPH, Max Gust SpeedMPH,PrecipitationIn, CloudCover, Events, WindDirDegrees
2013-8-1,82,73,64,72,67,63,100,85,58,30.05,30.02,30.00,10,8,1,9,2,,0.00,4,,347
2013-8-2,84,72,59,68,63,59,100,76,45,30.08,30.05,30.02,10,8,0,6,1,,0.00,0,,279
2013-8-3,82,73,64,72,69,64,100,83,65,30.09,30.05,30.02,10,10,7,9,2,,0.00,3,,233
2013-8-4,82,71,60,70,65,57,100,76,42,30.13,30.10,30.07,10,8,2,8,2,,0.00,2,,6
2013-8-5,82,68,55,68,62,55,100,76,42,30.12,30.06,30.00,10,9,0,8,1,,0.00,1,,301
2013-8-6,82,76,69,75,69,64,94,84,73,30.02,29.99,29.97,10,10,4,10,2,,0.00,5,,207
2013-8-7,80,76,71,73,71,70,100,91,74,30.03,30.00,29.96,10,10,0,9,2,,0.00,3,,197
2013-8-8,73,71,69,72,71,68,100,96,88,30.08,30.02,29.97,10,8,0,9,3,,0.00,4,,123
2013-8-9,87,78,69,79,72,66,100,88,70,30.09,30.05,30.01,10,9,0,8,3,,0.00,2,,202
2013-8-10,87,78,69,75,72,68,100,85,62,30.15,30.11,30.08,10,8,0,8,2,,0.00,2,,268
2013-8-11,84,76,69,75,72,70,100,89,70,30.18,30.14,30.09,10,9,2,7,1,,0.00,4,,213
2013-8-12,82,75,68,73,70,66,100,86,69,30.13,30.07,29.97,10,9,1,9,2,,0.00,2,,206
2013-8-13,82,75,68,72,69,64,100,85,66,30.01,29.97,29.93,10,8,0,9,2,,0.00,4,,289
2013-8-14,75,66,57,64,58,54,94,77,50,30.10,30.06,30.01,10,10,10,13,5,,0.00,1,,32
2013-8-15,80,66,51,66,59,52,100,79,54,30.10,30.07,30.03,10,10,5,7,2,,0.00,3,,18
2013-8-16,77,70,62,66,63,57,100,82,57,30.12,30.09,30.07,10,10,6,8,1,,0.00,5,,45
2013-8-17,75,68,62,66,64,63,100,84,65,30.16,30.12,30.09,10,8,2,9,2,,0.00,6,,143
2013-8-18,73,68,64,68,65,64,100,91,78,30.19,30.15,30.11,10,9,1,8,1,,0.00,7,,171
2013-8-19,80,72,64,70,66,63,100,85,61,30.16,30.12,30.08,10,10,1,7,0,,0.00,5,,141
2013-8-20,84,74,64,73,68,63,100,89,62,30.17,30.14,30.10,10,9,0,13,2,,0.00,3,,152
2013-8-21,82,73,64,72,68,63,100,88,66,30.24,30.18,30.13,10,8,1,7,2,,0.00,1,,190
2013-8-22,87,74,62,72,68,63,100,81,52,30.19,30.14,30.07,10,8,0,7,1,,0.00,1,,276
2013-8-23,89,76,64,72,68,64,100,83,52,30.13,30.09,30.02,10,7,0,8,1,,0.00,1,,346
2013-8-24,87,74,62,68,65,61,100,76,40,30.25,30.18,30.11,10,7,0,10,1,,0.00,3,,87
2013-8-25,86,73,60,70,63,59,100,77,45,30.37,30.31,30.26,10,9,1,8,2,,0.00,1,,175
2013-8-26,84,70,57,68,62,57,100,78,51,30.34,30.26,30.18,10,8,1,6,1,,0.00,1,,287
2013-8-27,86,72,57,72,65,57,100,80,55,30.20,30.14,30.08,10,7,0,6,1,,0.00,1,,300
2013-8-28,89,76,62,72,68,63,100,81,52,30.11,30.07,30.03,10,6,0,6,1,,0.00,1,,264
2013-8-29,89,78,66,75,71,64,100,84,55,30.08,30.03,29.98,10,6,0,13,1,,0.00,3,,245
2013-8-30,91,80,68,77,72,66,100,83,55,30.03,29.98,29.94,10,7,0,6,1,,0.00,2,,316
2013-8-31,91,80,68,73,71,68,100,80,52,29.98,29.94,29.88,10,8,0,12,2,,0.00,1,,221